Satellite-Ground Cal/Val Region Overpasses Predictions

Prediction of Satellite NPP Overpassing Cal/Val Region: PacNW

Region Location: (Latitude: 10.00, Longitude: 139.50) to (Latitude: 22.70, Longitude: 165.60).

Table of predicted overpasses for the next 14.0 days since TLE Epoch: 7/31/2021
Interval Starting Time Starting Location Ending Time Ending Location
1 07/31/2021 03:11:24 ( 10.02, 151.86) 07/31/2021 03:15:00 ( 22.69, 148.84)
2 07/31/2021 15:43:18 ( 22.66, 149.09) 07/31/2021 15:46:53 ( 10.04, 146.08)
3 08/01/2021 02:52:22 ( 10.00, 156.62) 08/01/2021 02:55:58 ( 22.68, 153.60)
4 08/01/2021 15:24:16 ( 22.68, 153.85) 08/01/2021 15:27:51 ( 10.05, 150.84)
5 08/02/2021 02:33:22 ( 10.05, 161.36) 08/02/2021 02:36:57 ( 22.67, 158.36)
6 08/02/2021 15:05:15 ( 22.69, 158.61) 08/02/2021 15:08:51 ( 10.01, 155.59)
7 08/03/2021 02:15:00 ( 12.32, 165.59) 08/03/2021 02:17:56 ( 22.65, 163.12)
8 08/03/2021 03:55:51 ( 10.04, 140.74) 08/03/2021 03:57:22 ( 15.38, 139.51)
9 08/03/2021 14:46:14 ( 22.64, 163.35) 08/03/2021 14:49:49 ( 10.02, 160.35)
10 08/04/2021 03:36:49 ( 10.02, 145.50) 08/04/2021 03:40:24 ( 22.64, 142.50)
11 08/04/2021 14:30:12 ( 12.15, 165.59) 08/04/2021 14:30:48 ( 10.04, 165.11)
12 08/04/2021 16:08:43 ( 22.65, 142.74) 08/04/2021 16:12:18 ( 10.03, 139.73)
13 08/05/2021 03:17:48 ( 10.01, 150.26) 08/05/2021 03:21:24 ( 22.69, 147.24)
14 08/05/2021 15:49:41 ( 22.67, 147.50) 08/05/2021 15:53:16 ( 10.04, 144.49)
15 08/06/2021 02:58:47 ( 10.05, 155.01) 08/06/2021 03:02:22 ( 22.68, 152.00)
16 08/06/2021 15:30:40 ( 22.68, 152.26) 08/06/2021 15:34:15 ( 10.06, 149.25)
17 08/07/2021 02:39:46 ( 10.04, 159.77) 08/07/2021 02:43:21 ( 22.66, 156.76)
18 08/07/2021 15:11:38 ( 22.69, 157.01) 08/07/2021 15:15:14 ( 10.01, 154.00)
19 08/08/2021 02:20:44 ( 10.03, 164.53) 08/08/2021 02:24:19 ( 22.65, 161.52)
20 08/08/2021 14:52:38 ( 22.64, 161.76) 08/08/2021 14:56:13 ( 10.02, 158.75)
21 08/09/2021 03:43:13 ( 10.02, 143.91) 08/09/2021 03:46:48 ( 22.64, 140.91)
22 08/09/2021 14:34:40 ( 18.90, 165.59) 08/09/2021 14:37:11 ( 10.04, 163.51)
23 08/09/2021 16:15:06 ( 22.65, 141.14) 08/09/2021 16:17:01 ( 15.91, 139.50)
24 08/10/2021 03:24:11 ( 10.01, 148.67) 08/10/2021 03:27:47 ( 22.69, 145.65)
25 08/10/2021 15:56:05 ( 22.66, 145.90) 08/10/2021 15:59:40 ( 10.04, 142.90)
26 08/11/2021 03:05:11 ( 10.06, 153.41) 08/11/2021 03:08:46 ( 22.68, 150.41)
27 08/11/2021 15:37:04 ( 22.67, 150.66) 08/11/2021 15:40:39 ( 10.05, 147.66)
28 08/12/2021 02:46:09 ( 10.05, 158.17) 08/12/2021 02:49:44 ( 22.67, 155.17)
29 08/12/2021 15:18:02 ( 22.69, 155.42) 08/12/2021 15:21:38 ( 10.01, 152.40)
30 08/13/2021 02:27:08 ( 10.04, 162.93) 08/13/2021 02:30:43 ( 22.66, 159.93)
